Starlink 30587

operational
NORAD ID: 58064 Int'l Des: 2023-158 Owner: SPXS Country: US Constellation: starlink
LEOCIRCULAR

About Starlink 30587

Description loading...

Live Position

Loading 3D Globe...

Upcoming Passes

Altitude History

Altitude vs Time

uPlot chart will show altitude changes over time

Two-Line Element Set

1 58064U 23158P 25260.05385675 -.00000625 00000-0 -31215-4 0 9997
2 58064 43.0016 253.6805 0000988 276.3128 83.7602 15.02531804107410
Epoch: Sep 17, 2025 • Age: 19 hours

Current Status

Altitude 569.1 km
Velocity 7.58 km/s
Sub-Earth Point -36.13°S, 174.97°W
Launch Date Oct 13, 2023
Age 1.9 years
Type internet

Technical Details

Classification Payload
Mass 730.00 kg
Dry Mass 700.00 kg
Total Mass 730.00 kg
Length 0.30 m
Diameter 4.10 m
Span 29.00 m
Shape Box + pan
Manufacturer SPXS
Bus Type Starlink V2M
Phase Status In Orbit
Owner/State SPXS/US

Large Constellations

Loading constellations...